[[{"header":{"parameterUnit":"m.s-1","parameterCategory":1,"la1":30.2991,"la2":30.254,"lo1":-89.0895,"lo2":-89.0444,"dy":0.0017,"dx":0.0017,"nx":28,"ny":28,"refTime":"2023-09-29T21:00:00:Z","depth":0,"parameterNumber":2,"parameterNumberName":"U-component_of_WINDS"},"data":[0,0,0,0,0,0,0,0,0,0,0,0,0,0,0,0,0,0,0,0,0,0,0,0,0,0,0,0,0,0,0,0,0,0,0,0,0,0,0,0,0,0,0,0,0,0,0,0,0,0,0,0,0,0,0,0,0,0,-2.5476,-2.5476,0,-2.5441,-2.5441,-2.544,-2.5318,-2.5315,-2.5312,-2.531,-2.5277,-2.5278,-2.528,0,0,0,0,0,0,0,0,0,0,0,0,0,-2.544,-2.5441,-2.5476,-2.5475,-2.5475,-2.5441,-2.5441,-2.544,-2.5318,-2.5315,-2.5312,-2.5309,-2.5276,-2.5278,-2.528,0,0,0,0,0,0,0,0,0,0,0,0,0,-2.5436,-2.5442,-2.5476,-2.541,-2.5404,-2.5441,-2.5441,-2.544,-2.5319,-2.5315,-2.5311,-2.5307,-2.5275,-2.5278,-2.528,-2.5379,0,0,-2.5288,-2.5289,0,0,0,0,0,0,0,0,-2.5436,-2.5437,-2.542,-2.5415,-2.5408,-2.538,-2.5416,-2.542,-2.532,-2.5351,-2.531,-2.5305,-2.5314,-2.5313,-2.5316,-2.5378,-2.5376,-2.5288,-2.529,-2.5291,-2.5292,0,0,0,0,0,0,0,-2.5436,-2.5438,-2.5462,-2.542,-2.5413,-2.5383,-2.5378,-2.5416,-2.5357,-2.5348,-2.5339,-2.5337,-2.531,-2.5314,-2.5314,-2.5376,-2.5288,-2.5291,-2.5292,-2.5293,-2.5518,-2.5522,0,0,0,0,0,0,-2.5446,-2.5439,-2.5463,-2.5461,-2.5412,-2.5387,-2.5381,-2.5393,-2.5356,-2.5346,-2.534,-2.5331,-2.5312,-2.5312,-2.5313,-2.5426,-2.5291,-2.5293,-2.5295,-2.5514,-2.5519,-2.5524,0,0,0,0,0,0,-2.5445,-2.5449,-2.5465,-2.5448,-2.5447,-2.5392,-2.5406,-2.5394,-2.5398,-2.535,-2.5339,-2.5355,-2.5308,-2.5309,-2.5364,-2.5424,-2.5295,-2.5297,-2.5508,-2.5515,-2.5521,-2.5655,0,0,0,0,0,0,-2.5445,-2.545,-2.5486,-2.5449,-2.5449,-2.5516,-2.541,-2.5397,-2.5402,-2.539,-2.5361,-2.5352,-2.5305,-2.5361,-2.5366,-2.5425,-2.5299,-2.5503,-2.5511,-2.5519,-2.5645,-2.5665,-2.5683,0,0,0,0,0,-2.5444,-2.5525,-2.5488,-2.5492,-2.5493,-2.5519,-2.5519,-2.5463,-2.5408,-2.5444,-2.5414,-2.5353,-2.5416,-2.5367,-2.5373,-2.5433,-2.5499,-2.5509,-2.5519,-2.5636,-2.5661,-2.5682,0,0,0,0,0,0,-2.557,-2.5519,-2.5477,-2.5549,-2.554,-2.5498,-2.5542,-2.5491,-2.5497,-2.5486,-2.5417,-2.5411,-2.5476,-2.546,-2.5406,-2.5527,-2.5447,-2.5459,-2.5535,-2.5558,-2.5577,-2.5579,-2.5301,0,0,0,0,0,-2.5607,-2.5632,-2.5586,-2.5653,-2.565,-2.5598,-2.5607,-2.5565,-2.5553,-2.5548,-2.5521,-2.5512,-2.553,-2.5543,-2.5557,-2.5642,-2.5634,-2.5686,-2.5705,-2.5721,-2.5732,-2.5776,-2.5799,-2.5557,-2.5557,-2.5556,0,0,-2.5681,-2.5656,-2.5676,-2.5678,-2.5665,-2.5694,-2.5595,-2.5629,-2.565,-2.5553,-2.5603,-2.5584,-2.5569,-2.564,-2.5669,-2.5628,-2.5797,-2.5734,-2.5747,-2.5749,-2.5789,-2.5812,-2.5833,-2.5563,-2.5562,-2.5561,0,0,-2.5832,-2.5816,-2.587,-2.586,-2.5843,-2.5807,-2.5821,-2.5788,-2.5771,-2.582,-2.5749,-2.5773,-2.5805,-2.5798,-2.5798,-2.5949,-2.5894,-2.5956,-2.6054,-2.6099,-2.6118,-2.6134,-2.6188,-2.6208,-2.5967,-2.5967,-2.5967,0,-2.5928,-2.5967,-2.5905,-2.5944,-2.5947,-2.5861,-2.5917,-2.591,-2.5899,-2.5904,-2.5858,-2.5897,-2.5881,-2.5949,-2.5986,-2.5989,-2.6003,-2.5958,-2.612,-2.6136,-2.615,-2.6201,-2.6222,-2.5975,-2.5974,-2.5973,-2.5972,0,-2.6085,-2.6114,-2.616,-2.6151,-2.6159,-2.6206,-2.6153,-2.617,-2.6128,-2.6098,-2.6149,-2.6128,-2.6136,-2.6149,-2.6108,-2.6212,-2.6187,-2.6132,-2.605,-2.6182,-2.6229,-2.6248,-2.5986,-2.5983,-2.598,-2.5979,0,0,-2.6313,-2.627,-2.6288,-2.6283,-2.6258,-2.6279,-2.6324,-2.6331,-2.6347,-2.6343,-2.6378,-2.6408,-2.6357,-2.6358,-2.6316,-2.6355,-2.6477,-2.6295,-2.6294,-2.633,-2.659,-2.6632,-2.6655,-2.644,-2.6444,-2.6446,-2.6591,0,-2.6456,-2.6528,-2.6475,-2.6556,-2.6582,-2.6502,-2.6541,-2.653,-2.6504,-2.6524,-2.6495,-2.6517,-2.6448,-2.6448,-2.6483,-2.6455,-2.6528,-2.6443,-2.6473,-2.6475,-2.6479,-2.6679,-2.6723,-2.6861,-2.6609,-2.6612,-2.6614,0,-2.6632,-2.6635,-2.672,-2.669,-2.6699,-2.6735,-2.6738,-2.6757,-2.6745,-2.6723,-2.6725,-2.6673,-2.6716,-2.6637,-2.6695,-2.6638,-2.6648,-2.6636,-2.664,-2.664,-2.6553,-2.6685,-2.6903,-2.6924,-2.6642,-2.664,-2.6638,0,-2.679,-2.6816,-2.6869,-2.6868,-2.6835,-2.6862,-2.685,-2.6833,-2.6841,-2.6845,-2.685,-2.6859,-2.6864,-2.6873,-2.6825,-2.6772,-2.689,-2.6806,-2.6874,-2.6875,-2.6901,-2.69,-2.7124,-2.6909,-2.6908,-2.6908,-2.6908,0,-2.6955,-2.701,-2.694,-2.6973,-2.7032,-2.6972,-2.7032,-2.7012,-2.6998,-2.7026,-2.6958,-2.6987,-2.6922,-2.6945,-2.6908,-2.6962,-2.6965,-2.695,-2.6939,-2.6955,-2.6958,-2.696,-2.6949,-2.6913,-2.6912,-2.6911,-2.691,0,-2.7141,-2.7096,-2.7149,-2.7114,-2.7107,-2.7153,-2.7123,-2.7153,-2.7123,-2.716,-2.7165,-2.7118,-2.7141,-2.7095,-2.7111,-2.7087,-2.7163,-2.7138,-2.7168,-2.716,-2.723,-2.7224,-2.7463,-2.7491,-2.7258,-2.7261,-2.7262,0,-2.7249,-2.7289,-2.7259,-2.7273,-2.7264,-2.7288,-2.7296,-2.7239,-2.725,-2.724,-2.7272,-2.7289,-2.7299,-2.734,-2.7308,-2.7321,-2.7295,-2.7378,-2.7296,-2.7312,-2.7296,-2.7294,-2.7298,-2.7395,-2.7397,-2.74,-2.7402,0,-2.7446,-2.7422,-2.7436,-2.7444,-2.7455,-2.7458,-2.7457,-2.7472,-2.7412,-2.7429,-2.7451,-2.7459,-2.7476,-2.7495,-2.75,-2.7488,-2.7436,-2.7428,-2.7444,-2.7461,-2.7476,-2.7469,-2.7213,-2.7422,-2.742,-2.7419,-2.7418,-2.7417,-2.7596,-2.7628,-2.7612,-2.763,-2.7623,-2.7624,-2.765,-2.7624,-2.7641,-2.765,-2.7616,-2.7646,-2.7634,-2.7636,-2.763,-2.7654,-2.7617,-2.764,-2.7646,-2.7653,-2.7664,-2.7473,-2.7655,-2.7654,-2.7654,-2.7653,-2.7653,0,-2.7789,-2.7775,-2.7793,-2.7792,-2.7808,-2.7756,-2.7752,-2.7769,-2.7796,-2.7789,-2.7801,-2.7827,-2.7845,-2.7815,-2.7828,-2.7853,-2.783,-2.7859,-2.7856,-2.7855,-2.7697,-2.7681,-2.7878,-2.7878,-2.7878,-2.7878,-2.7878,-2.7878,-2.7891,-2.7943,-2.7918,-2.7966,-2.7952,-2.7981,-2.7983,-2.7984,-2.7978,-2.801,-2.8024,-2.8005,-2.7989,-2.8,-2.8015,-2.8006,-2.8014,-2.8052,-2.8035,-2.7887,-2.7865,-2.7844,-2.783,-2.8054,-2.8054,-2.819,-2.8191,-2.8192]},{"header":{"parameterUnit":"m.s-1","parameterCategory":1,"la1":30.2991,"la2":30.254,"lo1":-89.0895,"lo2":-89.0444,"dy":0.0017,"dx":0.0017,"nx":28,"ny":28,"refTime":"2023-09-29T21:00:00:Z","depth":0,"parameterNumber":3,"parameterNumberName":"V-component_of_WINDS"},"data":[0,0,0,0,0,0,0,0,0,0,0,0,0,0,0,0,0,0,0,0,0,0,0,0,0,0,0,0,0,0,0,0,0,0,0,0,0,0,0,0,0,0,0,0,0,0,0,0,0,0,0,0,0,0,0,0,0,0,2.0112,2.0112,0,2.015,2.0151,2.0151,2.0206,2.0207,2.0208,2.0209,2.0244,2.0244,2.0244,0,0,0,0,0,0,0,0,0,0,0,0,0,2.0082,2.0083,2.0112,2.0112,2.0113,2.015,2.0151,2.0151,2.0206,2.0207,2.0208,2.0209,2.0244,2.0244,2.0244,0,0,0,0,0,0,0,0,0,0,0,0,0,2.0105,2.0083,2.0112,2.0145,2.0148,2.015,2.0151,2.0151,2.0205,2.0207,2.0208,2.021,2.0244,2.0244,2.0244,2.0216,0,0,2.0245,2.0245,0,0,0,0,0,0,0,0,2.0104,2.0106,2.0139,2.0142,2.0146,2.0175,2.0154,2.0173,2.0205,2.0183,2.0209,2.021,2.022,2.0222,2.0226,2.0218,2.0219,2.0245,2.0245,2.0245,2.0245,0,0,0,0,0,0,0,2.0102,2.0105,2.0127,2.014,2.0144,2.0156,2.0161,2.0157,2.0193,2.0185,2.019,2.0194,2.0222,2.0226,2.0227,2.022,2.0245,2.0245,2.0245,2.0245,2.0191,2.019,0,0,0,0,0,0,2.0096,2.0103,2.0126,2.0128,2.0128,2.0156,2.0161,2.0164,2.0193,2.0199,2.0192,2.0196,2.0225,2.0227,2.0228,2.0197,2.0245,2.0245,2.0245,2.0193,2.0191,2.0189,0,0,0,0,0,0,2.0096,2.0098,2.0124,2.0117,2.0121,2.0155,2.0158,2.0164,2.0168,2.0198,2.0205,2.019,2.0226,2.0228,2.0219,2.0199,2.0245,2.0245,2.0194,2.0192,2.019,2.0134,0,0,0,0,0,0,2.0094,2.0097,2.0087,2.0116,2.0121,2.0115,2.0156,2.0164,2.0168,2.0174,2.0198,2.0203,2.0227,2.0219,2.0219,2.02,2.0245,2.0196,2.0193,2.0191,2.0138,2.0131,2.0124,0,0,0,0,0,2.0093,2.0069,2.0087,2.0089,2.011,2.0114,2.0116,2.0146,2.0167,2.0157,2.0176,2.0202,2.0202,2.0217,2.0218,2.0199,2.0198,2.0194,2.0191,2.0141,2.0132,2.0124,0,0,0,0,0,0,2.0035,2.0074,2.0093,2.0078,2.0092,2.0123,2.0111,2.0135,2.0142,2.0147,2.0182,2.0187,2.0173,2.0186,2.0202,2.0174,2.0204,2.02,2.0166,2.0157,2.015,2.0146,2.0245,0,0,0,0,0,2.0021,2.0022,2.0055,2.0038,2.0045,2.0077,2.0079,2.0101,2.0117,2.0122,2.0141,2.0154,2.0157,2.0158,2.0163,2.0141,2.0147,2.0128,2.0121,2.0116,2.0111,2.0101,2.0093,2.0178,2.0178,2.0179,0,0,1.9991,2.0012,2.001,2.0027,2.0041,2.004,2.0081,2.0078,2.0077,2.0121,2.0114,2.0129,2.0146,2.013,2.0124,2.014,2.009,2.0111,2.0106,2.0106,2.0096,2.0088,2.0081,2.0176,2.0177,2.0177,0,0,1.9935,1.9952,1.994,1.9953,1.9974,1.9996,1.9993,2.002,2.0032,2.0026,2.0059,2.0058,2.0063,2.0073,2.0079,2.003,2.0053,2.003,1.9993,1.9982,1.9975,1.9969,1.995,1.9943,2.0027,2.0027,2.0027,0,1.9894,1.9895,1.993,1.9926,1.9932,1.9974,1.9962,1.9973,1.9993,1.9996,2.0014,2.0021,2.0035,2.0023,2.0011,2.0015,2.0012,2.0026,1.9973,1.9968,1.9963,1.9945,1.9938,2.0024,2.0024,2.0024,2.0024,0,1.9844,1.9844,1.9832,1.9852,1.9858,1.9849,1.9882,1.9883,1.9905,1.9924,1.9917,1.9936,1.9945,1.9944,1.9965,1.9935,1.9944,1.9967,1.9998,1.9951,1.9935,1.9928,2.0019,2.002,2.0021,2.0022,0,0,1.975,1.9792,1.9786,1.9796,1.9823,1.9823,1.9817,1.9828,1.9827,1.9841,1.9835,1.9839,1.9861,1.9868,1.989,1.9881,1.9839,1.9905,1.9906,1.9891,1.9806,1.9786,1.9778,1.9856,1.9855,1.9854,1.9804,0,1.9698,1.969,1.9722,1.9705,1.9705,1.9747,1.9741,1.9756,1.9775,1.9777,1.9797,1.9799,1.9829,1.9833,1.9826,1.9846,1.9822,1.985,1.9849,1.9849,1.9842,1.977,1.975,1.9701,1.9798,1.9797,1.9796,0,1.9635,1.9647,1.9631,1.966,1.9661,1.9655,1.9668,1.967,1.9688,1.9703,1.9711,1.9738,1.9733,1.9764,1.9756,1.9775,1.9777,1.9787,1.9785,1.9785,1.9818,1.9765,1.9686,1.9678,1.9787,1.9787,1.9788,0,1.9567,1.9579,1.9571,1.9578,1.9612,1.9607,1.962,1.9641,1.9645,1.9656,1.9659,1.9668,1.9673,1.9679,1.9708,1.9728,1.9696,1.973,1.9706,1.9705,1.9696,1.9695,1.9614,1.97,1.97,1.9701,1.9701,0,1.9504,1.9492,1.954,1.9535,1.9523,1.956,1.9546,1.9564,1.9582,1.958,1.9616,1.9613,1.9652,1.9653,1.9676,1.9665,1.9667,1.9678,1.9683,1.9673,1.9672,1.9673,1.9677,1.9699,1.9699,1.9699,1.97,0,1.9424,1.9456,1.945,1.9484,1.9492,1.9481,1.9509,1.9505,1.9527,1.9524,1.9526,1.9559,1.9563,1.9593,1.9602,1.9617,1.9597,1.961,1.9591,1.9595,1.9569,1.957,1.9483,1.9473,1.9568,1.9567,1.9566,0,1.9381,1.9373,1.9407,1.9409,1.9421,1.9424,1.943,1.9466,1.947,1.9492,1.9484,1.9491,1.9498,1.9502,1.9526,1.9534,1.9546,1.9515,1.9547,1.9537,1.9543,1.9543,1.9542,1.9507,1.9506,1.9505,1.9504,0,1.9301,1.9318,1.9325,1.9338,1.9344,1.9355,1.9369,1.9368,1.9409,1.9411,1.9416,1.9422,1.9433,1.9438,1.945,1.9463,1.9489,1.9495,1.9489,1.9478,1.9466,1.9471,1.9571,1.9496,1.9497,1.9497,1.9498,1.9498,1.9237,1.9232,1.9255,1.9262,1.9277,1.9289,1.9287,1.931,1.9315,1.9327,1.9349,1.935,1.9369,1.9389,1.94,1.94,1.9416,1.9409,1.9406,1.9404,1.9398,1.9468,1.9403,1.9403,1.9403,1.9404,1.9404,0,1.9157,1.9175,1.9181,1.92,1.9205,1.9233,1.925,1.9252,1.9253,1.927,1.9277,1.9282,1.9288,1.9314,1.9323,1.9318,1.9331,1.9319,1.9319,1.9321,1.9384,1.9387,1.9309,1.9309,1.9309,1.9309,1.9309,1.9309,1.9116,1.9109,1.9129,1.9129,1.9147,1.915,1.9157,1.9168,1.9181,1.9186,1.9192,1.921,1.923,1.9241,1.9247,1.9255,1.9255,1.9239,1.925,1.9308,1.9317,1.9325,1.9328,1.9239,1.9239,1.9187,1.9187,1.9186]}]]